Showing default

SENTINEL 1C, 62261

Orbit data source: Space-Track

SENTINEL 1C, 62261 is an ESA payload satellite in SSO that was launched on Thu, 05 Dec 2024 UTC via a VEGA C launch vehicle from the French Guiana (FRGUI). Payload-class satellites include a variety of spacecraft equipped with specific instruments for various scientific and technological missions. These include communications satellites like Starlink; space stations such as the ISS; scientific satellites like the Hubble; Earth observation satellites from companies like Planet Labs, Umbra, and HawkEye 360; GPS; miniature CubeSats for education and research; and military/defense satellites.

Loading next visibility...
Identifier
62261, 2024-235A
Orbit
SSO
Country
Flag of ESAESA
Related business
Manufacturer
Thales Alenia
Mission
Operational Civil Radar Imaging
Bus & Motor
PRIMA, AOCS
Mass
2,157 kg wet, 2,027 kg dry
Launch date (UTC)
2024-12-05 (2 years ago)
Launch vehicle
VEGA C
Launch site
French Guiana (FRGUI)
Object type
Payload
Rocket body
Debris
Shape & HBR
Box + 4 Pan, 10.5 m
Radar Cross Section
19.705 m², Large (>1 m²)

Expand to show TLE details & history
Last TLE update: 10 hours ago

TLE from 10 hours ago
0 SENTINEL 1C
1 62261U 24235A   26171.49145333  .00000105  00000-0  32426-4 0  9999
2 62261  98.1821 178.7526 0001370  90.6192 269.5165 14.58605650 81892
Epoch: 2026-06-20T11:47Z
TLE epoch observation values (Epoch: 2026-06-20T11:47:41.567Z)
Latitude
0.00003°
Longitude
93.12409°
Altitude
700.672 km
Speed
7.506 km/s
True Right ascension
11h 55m 00s
True Declination
0° 00' 00"
Sunlit
Object was in daylight at epoch
Visualization orbit readout
Latitude
Unknown
Longitude
Unknown
Altitude
Unknown
Speed
Unknown
Apparent Right ascension
Unknown
Apparent Declination
Unknown
Sunlit
N/A
Visualization observer readout
Local Sidereal Time
08:42:37
Azimuth
Unknown
Elevation
Unknown
Doppler factor
Unknown
Orbital elements
Apogee altitude
695.731 km
Perigee altitude
693.793 km
Semi-major axis
7,072.899 km
Eccentricity
0.00014
Inclination
98.1821°
RAAN
178.7526°
Arg. of periapsis
90.6192°
True anomaly
269.5008°
Mean anomaly
269.5165°
Eccentric anomaly
269.50865°
Mean motion
3.64877 °/min
Orbital period
98.66 mins
BSTAR
0.000032426
Loading maneuver chart data...
Computing Atmospheric mass density...
Loading historical data...
Loading historical data...
Loading historical data...
Loading historical data...
Loading historical data...
Loading historical data...
Loading historical data...
Other satellites on launch #235 in the year 2024 (2024-12-05 UTC)

Documentation

Showing up to 5 results
|